Home > Weather > Kollam > Past weeks

Flag for India Weather for the Past 2 Weeks in Kollam, Kerala, India

Now
93 °F

Scattered clouds.


Feels Like: 110 °F
Forecast: 82 / 92 °F
Wind: 9 mph from South

Location: Thiruvananthapuram

Current Time: Apr 29, 2016 at 4:30:44 PM

Latest Report: Apr 29, 2016 at 4:00 PM


Visibility: 4 mi

Pressure: 29.71 "Hg

Humidity: 63%

Dew Point: 79 °F

Location of KollamLocation

Historic Weather in Kollam — Graph

°F

Kollam Temperature Yesterday

Maximum temperature yesterday: 91 °F (at 11:00 AM)
Minimum temperature yesterday: 84 °F (at 6:00 AM)
Average temperature yesterday: 89 °F

High & Low Weather Summary for the Past Weeks

 TemperatureHumidityPressure
High95 °F (Apr 15, 12:00 PM)94% (Apr 17, 7:30 PM)29.89 "Hg (Apr 17, 7:30 PM)
Low82 °F (Apr 18, 6:30 AM)59% (Apr 14, 3:00 PM)29.62 "Hg (Apr 24, 3:30 PM)
Average88 °F75%29.77 "Hg
* Reported Apr 14 2:30 PM — Apr 29 3:00 PM, Kollam, Weather by CustomWeather, © 2016

Note: Actual official high and low records may vary slightly from our data, if they occured in-between our weather recording intervals... More about our weather records

Advertising

Kollam Weather History for the Previous 24 Hours

Scroll right to see more
 ConditionsComfort  
Time TempWeatherWind HumidityBarometerVisibility
3:00 PM
Fri, Apr 29
91 °FScattered clouds.9 mph63%29.74 "Hg4 mi
2:30 PM93 °FScattered clouds.8 mph63%29.74 "Hg4 mi
1:30 PM91 °FScattered clouds.9 mph71%29.77 "Hg4 mi
1:00 PM91 °FScattered clouds.8 mph67%29.77 "Hg4 mi
12:30 PM91 °FScattered clouds.8 mph63%29.80 "Hg4 mi
12:00 PM91 °FScattered clouds.7 mph67%29.80 "Hg4 mi
11:30 AM91 °FScattered clouds.8 mph67%29.80 "Hg4 mi
10:30 AM90 °FScattered clouds.8 mph71%29.83 "Hg3 mi
10:00 AM90 °FScattered clouds.8 mph71%29.83 "Hg3 mi
9:30 AM90 °FScattered clouds.6 mph67%29.83 "Hg2 mi
8:30 AM90 °FHaze.2 mph71%29.83 "Hg2 mi
8:00 AM88 °FHaze.3 mph75%29.80 "Hg2 mi
7:00 AM84 °FHaze.3 mph79%29.80 "Hg2 mi
6:30 AM84 °FHaze.5 mph79%29.77 "Hg2 mi
6:00 AM84 °FHaze.3 mph79%29.77 "Hg2 mi
5:30 AM84 °FHaze.3 mph79%29.77 "Hg2 mi
4:30 AM84 °FHaze.3 mph84%29.74 "Hg2 mi
4:00 AM84 °FHaze.3 mph84%29.74 "Hg2 mi
3:30 AM86 °FPassing clouds.3 mph79%29.74 "Hg2 mi
3:00 AM86 °FPassing clouds.3 mph79%29.74 "Hg2 mi
2:30 AM86 °FHaze.3 mph79%29.74 "Hg2 mi
1:30 AM86 °FHaze.3 mph79%29.77 "Hg2 mi
12:30 AM86 °FHaze.No wind79%29.77 "Hg2 mi
10:30 PM
Thu, Apr 28
86 °FHaze.No wind79%29.80 "Hg2 mi
10:00 PM88 °FHaze.No wind75%29.80 "Hg2 mi
9:30 PM88 °FHaze.No wind75%29.80 "Hg2 mi
9:00 PM88 °FHaze.No wind75%29.80 "Hg2 mi
8:30 PM88 °FHaze.No wind75%29.80 "Hg2 mi
8:00 PM88 °FPassing clouds.5 mph75%29.77 "Hg2 mi
7:30 PM90 °FPassing clouds.5 mph71%29.77 "Hg2 mi
7:00 PM90 °FScattered clouds.3 mph71%29.74 "Hg3 mi
6:30 PM90 °FScattered clouds.5 mph71%29.74 "Hg4 mi
6:00 PM90 °FScattered clouds.3 mph71%29.74 "Hg4 mi
5:00 PM91 °FScattered clouds.6 mph63%29.71 "Hg4 mi
4:30 PM91 °FScattered clouds.6 mph67%29.71 "Hg4 mi
4:00 PM91 °FScattered clouds.7 mph67%29.71 "Hg4 mi
Weather by CustomWeather, © 2016

See weather overviewHow to use our weather pages